Location: Dal�� Lhota
(48.7500°N, 14.0167°E)
Time: 20:40:35
(UTC+00:00)

Transit 2A - Pass Details

Date: 05 August 2021
Orbit: 594 x 964 km, 66.7° (Epoch: 27 September)

Event Time Altitude Azimuth Distance (km) Brightness Sun altitude
Rises 11:38:04 0° 327° (NNW) 3,185 9.0 57.6°
Reaches altitude 10° 11:40:31 10° 335° (NNW) 2,318 8.4 57.5°
Maximum altitude 11:45:31 39° 44° (NE) 1,231 7.3 57.3°
Drops below altitude 10° 11:50:59 10° 112° (ESE) 2,539 8.9 57.0°
Sets 11:53:46 0° 120° (ESE) 3,526 9.5 56.9°
